Location: Prestice
(49.5670°N, 13.3170°E)
Time: 23:18:20
(UTC+01:00)

ISS - Visible Passes

Search period start: 28 November 2023 00:00
Search period end: 08 December 2023 00:00
Orbit: 416 x 418 km, 51.6° (Epoch: 28 November)

Date Brightness Start Highest point End Pass type
(mag) Time Alt. Az. Time Alt. Az. Time Alt. Az.
28 Nov -3.6 17:29:11 10° WNW 17:32:31 59° N 17:34:22 23° ENE visible
28 Nov -1.2 19:06:00 10° WNW 19:07:17 21° WNW 19:07:17 21° WNW visible
29 Nov -3.8 18:17:42 10° WNW 18:21:00 86° WSW 18:21:00 86° WSW visible
30 Nov -3.8 17:29:20 10° WNW 17:32:42 75° NNE 17:34:46 22° E visible
30 Nov -1.1 19:06:14 10° W 19:07:41 21° W 19:07:41 21° W visible
01 Dec -3.0 18:17:46 10° WNW 18:21:01 48° SSW 18:21:31 43° S visible
02 Dec -3.5 17:29:17 10° WNW 17:32:38 69° SSW 17:35:27 14° ESE visible
02 Dec -0.9 19:06:45 10° W 19:08:23 16° SW 19:08:23 16° SW visible
03 Dec -1.6 18:17:51 10° W 18:20:37 24° SW 18:22:29 15° S visible
04 Dec -2.2 17:29:08 10° W 17:32:14 35° SSW 17:35:19 10° SE visible
05 Dec -0.5 18:18:50 10° WSW 18:19:52 11° SW 18:20:54 10° SSW visible
06 Dec -0.8 17:29:13 10° W 17:31:30 17° SW 17:33:46 10° S visible
07 Dec -1.2 16:40:11 10° W 16:43:02 25° SW 16:45:50 10° SSE visible
